Hamilton, OH

5:40 AM EST on November 25, 2017 (GMT -0500)
Butler County Regional

Weather History for KHAO - December, 2013

Change the Weather History Date:

Sunday, December 1, 2013

  Actual Average (KLUK) Record (KLUK)
Temperature  
Mean Temperature 40 °F -  
Max Temperature 53 °F 47 °F 69 °F (1970)
Min Temperature 26 °F 31 °F 4 °F (1958)
Degree Days  
Heating Degree Days 26    
Moisture  
Dew Point 31 °F    
Average Humidity 72    
Maximum Humidity 89    
Minimum Humidity 48    
Precipitation  
Precipitation 0.00 in - - ()
Sea Level Pressure  
Sea Level Pressure 30.09 in    
Wind  
Wind Speed 2 mph (SSW)    
Max Wind Speed 9 mph    
Max Gust Speed -    
Visibility 10 miles    
Events      
Averages and records for this station are not official NWS values.
T = Trace of Precipitation, MM = Missing Value Source: NWS Daily Summary

Daily Weather History Graph

Daily Weather History Graph

Search for Another Location

Airport or City:

Trip Planner

Search our weather history database for the weather conditions in past years. The results will help you decide how hot, cold, wet, or windy it might be!

Date:

Astronomy

Dec. 01, 2013 Rise Set
Actual Time 7:39 AM EST 5:15 PM EST
Civil Twilight 7:09 AM EST 5:44 PM EST
Nautical Twilight 6:36 AM EST 6:18 PM EST
Astronomical Twilight 6:03 AM EST 6:50 PM EST
Moon 5:56 AM EST (12/1) 4:24 PM EST (12/1)
Length of Visible Light 10h 35m
Length of Day
9h 35m
Waning Crescent, 2% of the Moon is Illuminated
Dec 1
Waning Crescent
Dec 2
New
Dec 9
First Quarter
Dec 17
Full
Dec 25
Last Quarter

Hourly Weather History & Observations

Time (EST) Temp. Windchill Dew Point Humidity Pressure Visibility Wind Dir Wind Speed Gust Speed Precip Events Conditions
12:53 AM 26.1 °F - 21.9 °F 84% 30.20 in 10.0 mi Calm Calm - N/A   Clear
1:53 AM 28.0 °F 24.2 °F 24.1 °F 85% 30.18 in 10.0 mi ESE 3.5 mph - N/A   Clear
2:53 AM 30.0 °F - 26.1 °F 85% 30.17 in 10.0 mi Calm Calm - N/A   Overcast
3:53 AM 28.9 °F 25.2 °F 25.0 °F 85% 30.16 in 10.0 mi East 3.5 mph - N/A   Clear
4:53 AM 30.9 °F - 26.1 °F 82% 30.15 in 10.0 mi Calm Calm - N/A   Mostly Cloudy
5:53 AM 27.0 °F 23.0 °F 23.0 °F 85% 30.15 in 10.0 mi ESE 3.5 mph - N/A   Clear
6:53 AM 27.0 °F - 24.1 °F 89% 30.15 in 10.0 mi Calm Calm - N/A   Clear
7:53 AM 30.0 °F - 26.1 °F 85% 30.15 in 10.0 mi Calm Calm - N/A   Overcast
8:53 AM 36.0 °F - 30.9 °F 82% 30.15 in 10.0 mi Calm Calm - N/A   Overcast
9:53 AM 43.0 °F - 33.1 °F 68% 30.15 in 10.0 mi Calm Calm - N/A   Overcast
10:53 AM 48.0 °F - 32.0 °F 54% 30.14 in 10.0 mi WSW 5.8 mph - N/A   Overcast
11:53 AM 50.0 °F - 32.0 °F 50% 30.11 in 10.0 mi SW 9.2 mph - N/A   Overcast
12:53 PM 51.1 °F - 32.0 °F 48% 30.08 in 10.0 mi WSW 8.1 mph - N/A   Overcast
1:53 PM 52.0 °F - 34.0 °F 50% 30.05 in 10.0 mi Calm Calm - N/A   Overcast
2:53 PM 53.1 °F - 34.0 °F 48% 30.03 in 10.0 mi SSW 4.6 mph - N/A   Overcast
3:53 PM 53.1 °F - 35.1 °F 50% 30.03 in 10.0 mi SW 3.5 mph - N/A   Overcast
4:53 PM 51.1 °F - 35.1 °F 54% 30.02 in 10.0 mi Calm Calm - N/A   Overcast
5:53 PM 45.0 °F - 35.1 °F 68% 30.02 in 10.0 mi Calm Calm - N/A   Overcast
6:53 PM 37.9 °F - 32.0 °F 79% 30.03 in 10.0 mi Calm Calm - N/A   Scattered Clouds
7:53 PM 39.0 °F - 34.0 °F 82% 30.02 in 10.0 mi Calm Calm - N/A   Overcast
8:53 PM 42.1 °F - 35.1 °F 76% 30.01 in 10.0 mi Calm Calm - N/A   Overcast
9:53 PM 41.0 °F 39.0 °F 35.1 °F 79% 30.00 in 10.0 mi WNW 3.5 mph - N/A   Overcast
10:53 PM 37.9 °F - 33.1 °F 83% 29.99 in 10.0 mi Calm Calm - N/A   Mostly Cloudy
11:53 PM 39.9 °F - 35.1 °F 83% 29.99 in 10.0 mi Calm Calm - N/A   Overcast